Location: Davidschlag
(48.4333°N, 14.2833°E)
Time: 15:21:52
(UTC+00:00)

STARLINK-1061 - Pass Details

Date: 27 February 2020
Orbit: 549 x 550 km, 53.0° (Epoch: 08 April)

Event Time Altitude Azimuth Distance (km) Brightness Sun altitude
Rises 17:39:57 0° 225° (SW) 2,707 7.9 -10.3°
Reaches altitude 10° 17:42:13 10° 220° (SW) 1,817 6.9 -10.6°
Maximum altitude 17:46:13 51° 145° (SE) 700 3.9 -11.3°
Enters shadow 17:49:14 17° 74° (ENE) 1,449 5.2 -11.8°
